Location: Unspecified
(43.4354°N, 0.0000°E)
Time: 09:34:06
(UTC+00:00)

Courier 1B - Pass Details

Date: 18 June 2019
Orbit: 963 x 1209 km, 28.3° (Epoch: 17 July)

Event Time Altitude Azimuth Distance (km) Brightness Sun altitude
Rises 00:48:45 0° 255° (WSW) 4,104 - -22.3°
Reaches altitude 10° 00:52:58 10° 235° (SW) 3,141 - -22.1°
Maximum altitude 00:57:14 16° 201° (SSW) 2,724 - -21.9°
Drops below altitude 10° 01:01:27 10° 168° (SSE) 3,106 - -21.7°
Sets 01:05:36 0° 147° (SSE) 4,034 - -21.5°
